Anula, Australia

10:28 AM ACST on July 23, 2017 (GMT +0930)
Anula

Weather History for 94120 - July, 2013

Change the Weather History Date:

Tuesday, July 2, 2013

  Actual Average Record
Temperature  
Mean Temperature 70 °F -  
Max Temperature 80 °F 87 °F - ()
Min Temperature 61 °F 67 °F - ()
Cooling Degree Days 6    
Growing Degree Days 20 (Base 50)    
Moisture  
Dew Point 42 °F    
Average Humidity 35    
Maximum Humidity 64    
Minimum Humidity 16    
Precipitation  
Precipitation 0.00 in 0.00 in - ()
Sea Level Pressure  
Sea Level Pressure 29.97 in    
Wind  
Wind Speed 11 mph ()    
Max Wind Speed 22 mph    
Max Gust Speed -    
Visibility 11.9 miles    
Events      
T = Trace of Precipitation, MM = Missing Value Source: Averaged Metar Reports

Daily Weather History Graph

Daily Weather History Graph

Search for Another Location

Airport or City:

Trip Planner

Search our weather history database for the weather conditions in past years. The results will help you decide how hot, cold, wet, or windy it might be!

Date:

Astronomy

Jul. 02, 2013 Rise Set
Actual Time 7:08 AM ACST 6:32 PM ACST
Civil Twilight 6:45 AM ACST 6:55 PM ACST
Nautical Twilight 6:18 AM ACST 7:22 PM ACST
Astronomical Twilight 5:52 AM ACST 7:48 PM ACST
Moon 1:57 AM ACST (7/2) 1:55 PM ACST (7/2)
Length of Visible Light 12h 10m
Length of Day
11h 24m
Waning Crescent, 31% of the Moon is Illuminated
Jul 2
Waning Crescent
Jul 8
New
Jul 16
First Quarter
Jul 23
Full
Jul 30
Last Quarter

Hourly Weather History & Observations

Time (ACST) Temp. Dew Point Humidity Pressure Visibility Wind Dir Wind Speed Gust Speed Precip Events Conditions
12:00 AM 69 °F 34 °F 17% 30.00 in 9 mi SE 10.4 mph - -   Smoke
12:00 AM 69.8 °F 33.8 °F 27% 29.98 in - SE 10.4 mph - N/A   Clear
12:30 AM 69 °F 33 °F 16% 30.00 in - SE 11.5 mph - -  
12:30 AM 68.0 °F 33.8 °F 28% 29.98 in - SE 11.5 mph - N/A   Clear
1:00 AM 68.0 °F 33.8 °F 28% 29.98 in - SE 13.8 mph - N/A   Clear
1:30 AM 66.2 °F 33.8 °F 30% 29.98 in - SE 13.8 mph - N/A   Clear
2:00 AM 66.2 °F 33.8 °F 30% 29.98 in - SE 12.7 mph - N/A   Clear
2:30 AM 66.2 °F 33.8 °F 30% 29.98 in - SE 15.0 mph - N/A   Clear
3:00 AM 67 °F 33 °F 18% 29.98 in 16 mi ESE 15.0 mph - -   Smoke
3:00 AM 66.2 °F 33.8 °F 30% 29.98 in - ESE 15.0 mph - N/A   Clear
3:30 AM 66.2 °F 35.6 °F 32% 29.98 in - ESE 12.7 mph - N/A   Clear
4:00 AM 66.2 °F 35.6 °F 32% 29.98 in - ESE 11.5 mph - N/A   Clear
4:30 AM 66.2 °F 37.4 °F 35% 29.98 in - East 11.5 mph - N/A   Clear
5:00 AM 64.4 °F 37.4 °F 37% 29.98 in - ESE 10.4 mph - N/A   Clear
5:30 AM 64.4 °F 39.2 °F 40% 29.98 in - ESE 9.2 mph - N/A   Clear
6:00 AM 64 °F 39 °F 28% 29.99 in 16 mi ESE 9.2 mph - -   Smoke
6:00 AM 64.4 °F 39.2 °F 40% 29.98 in - ESE 9.2 mph - N/A   Clear
6:30 AM 63 °F 40 °F 31% 29.99 in - ESE 8.1 mph - -  
6:30 AM 62.6 °F 41.0 °F 45% 29.98 in - ESE 8.1 mph - N/A   Clear
7:00 AM 62.6 °F 41.0 °F 45% 30.01 in - ESE 8.1 mph - N/A   Clear
7:30 AM 62.6 °F 39.2 °F 42% 30.01 in - SE 11.5 mph - N/A   Clear
8:00 AM 62.6 °F 37.4 °F 39% 30.01 in - SE 12.7 mph - N/A   Clear
8:30 AM 62.6 °F 39.2 °F 42% 30.04 in - SE 11.5 mph - N/A   Clear
9:00 AM 65 °F 38 °F 26% 30.05 in 12 mi SE 12.7 mph - -   Smoke
9:00 AM 64.4 °F 37.4 °F 37% 30.04 in - SE 12.7 mph - N/A   Clear
9:30 AM 68 °F 39 °F 24% 30.04 in - SE 17.3 mph - -  
9:30 AM 68.0 °F 39.2 °F 35% 30.04 in - SE 17.3 mph - N/A   Clear
10:00 AM 69.8 °F 39.2 °F 33% 30.04 in - SE 16.1 mph - N/A   Clear
10:30 AM 73.4 °F 42.8 °F 33% 30.01 in - ESE 20.7 mph - N/A   Clear
11:00 AM 73.4 °F 42.8 °F 33% 30.01 in - ESE 19.6 mph - N/A   Clear
11:30 AM 75.2 °F 41.0 °F 29% 30.01 in - East 20.7 mph - N/A   Clear
12:00 PM 76 °F 38 °F 16% 29.99 in 12 mi East 21.9 mph - -   Smoke
12:00 PM 77.0 °F 39.2 °F 26% 29.98 in - East 21.9 mph - N/A   Clear
12:30 PM 76 °F 39 °F 16% 29.97 in - ESE 17.3 mph - -  
12:30 PM 77.0 °F 39.2 °F 26% 29.98 in - ESE 17.3 mph - N/A   Clear
1:00 PM 78.8 °F 41.0 °F 26% 29.95 in - East 18.4 mph - N/A   Clear
1:30 PM 78.8 °F 42.8 °F 28% 29.92 in - East 16.1 mph - N/A   Clear
2:00 PM 78.8 °F 44.6 °F 30% 29.92 in - ENE 17.3 mph - N/A   Clear
2:30 PM 78.8 °F 44.6 °F 30% 29.92 in - East 12.7 mph - N/A   Clear
3:00 PM 80 °F 46 °F 19% 29.91 in 12 mi ESE 12.7 mph - -   Smoke
3:00 PM 80.6 °F 46.4 °F 30% 29.89 in - ESE 12.7 mph - N/A   Clear
3:30 PM 80 °F 46 °F 20% 29.90 in - East 12.7 mph - -  
3:30 PM 80.6 °F 46.4 °F 30% 29.89 in - East 12.7 mph - N/A   Clear
4:00 PM 78.8 °F 44.6 °F 30% 29.89 in - SE 13.8 mph - N/A   Clear
4:30 PM 80.6 °F 44.6 °F 28% 29.89 in - ESE 12.7 mph - N/A   Clear
5:00 PM 80.6 °F 44.6 °F 28% 29.89 in - East 12.7 mph - N/A   Clear
5:30 PM 78.8 °F 44.6 °F 30% 29.89 in - ENE 11.5 mph - N/A   Clear
6:00 PM 78 °F 46 °F 21% 29.91 in 12 mi East 9.2 mph - -   Smoke
6:00 PM 78.8 °F 46.4 °F 32% 29.89 in - East 9.2 mph - N/A   Clear
6:30 PM 75 °F 50 °F 30% 29.92 in - ENE 6.9 mph - -  
6:30 PM 75.2 °F 50.0 °F 41% 29.92 in - ENE 6.9 mph - N/A   Clear
7:00 PM 71.6 °F 53.6 °F 53% 29.92 in - ENE 5.8 mph - N/A   Clear
7:30 PM 69.8 °F 51.8 °F 53% 29.95 in - East 6.9 mph - N/A   Clear
8:00 PM 68.0 °F 51.8 °F 56% 29.95 in - ESE 5.8 mph - N/A   Clear
8:30 PM 66.2 °F 51.8 °F 60% 29.95 in - ESE 6.9 mph - N/A   Clear
9:00 PM 65 °F 52 °F 53% 29.97 in 6 mi ENE 5.8 mph - -   Smoke
9:00 PM 64.4 °F 51.8 °F 64% 29.98 in - ENE 5.8 mph - N/A   Clear
9:30 PM 65 °F 52 °F 53% 29.98 in - East 5.8 mph - -  
9:30 PM 64.4 °F 51.8 °F 64% 29.98 in - East 5.8 mph - N/A   Clear
10:00 PM 64.4 °F 51.8 °F 64% 29.98 in - East 3.5 mph - N/A   Clear
10:30 PM 68.0 °F 51.8 °F 56% 29.98 in - South 5.8 mph - N/A   Clear
11:00 PM 68.0 °F 53.6 °F 60% 29.98 in - SSE 5.8 mph - N/A   Clear
11:30 PM 71.6 °F 44.6 °F 38% 29.98 in - SSE 6.9 mph - N/A   Clear